Location: Muron
(46.0344°N, 0.8287°W)
Time: 07:15:21
(UTC+00:00)

Daily predictions for brighter satellites

Satellite Brightness Start Highest point End
(mag) Time Altitude Azimuth Time Altitude Azimuth Time Altitude Azimuth
SL-24 R/B 4.1 17:16:05 10° SSE 17:20:19 62° ENE 17:24:46 10° N
CZ-4C R/B 2.2 17:16:07 10° SW 17:21:02 86° NW 17:27:02 10° NE
CZ-4B R/B 3.2 17:18:37 10° SSE 17:24:07 76° ENE 17:29:44 10° NNW
Tsikada Rocket 4.0 17:18:05 10° S 17:24:25 74° E 17:30:41 10° NNE
FengYun 1-2 T 4.3 17:20:00 10° SSE 17:25:27 64° ENE 17:31:00 10° N
USA 234 4.1 17:19:59 10° ENE 17:25:45 34° N 17:31:32 10° WNW
Cosmos 1400 Rocket 2.9 17:23:05 10° N 17:27:14 89° WSW 17:31:19 10° S
CZ-2D R/B 4.3 17:25:26 10° ESE 17:28:35 24° ENE 17:31:45 10° NNE
Cosmos 1354 Rocket 4.4 17:24:18 10° S 17:29:20 44° ESE 17:34:24 10° NNE
Meteor 2-5 Rocket 4.0 17:24:25 10° SSE 17:29:42 45° E 17:34:56 10° NNE
SL-14 R/B 3.8 17:26:41 10° SSE 17:30:15 38° E 17:33:53 10° NNE
Cosmos 1025 Rocket 3.5 17:26:49 10° SSW 17:31:05 64° W 17:35:25 10° N
Cosmos 972 4.4 17:25:57 10° NNW 17:31:20 70° ENE 17:36:16 10° SSE
Cosmos 1603 3.8 17:26:22 10° NNW 17:31:59 55° ENE 17:37:35 10° SE
Cosmos 2297 Rocket 3.9 17:28:48 10° WSW 17:33:37 28° NW 17:38:26 10° N
Envisat 4.4 17:30:10 10° S 17:34:59 43° W 17:39:50 10° NNW
COSMOS 2455 4.2 17:32:13 10° SSE 17:36:28 20° ESE 17:40:26 11° ENE
KORONAS-FOTON 4.4 17:33:19 10° SSW 17:37:10 62° W 17:41:05 10° N
ATLAS 3B R/B 2.8 17:31:50 10° NW 17:38:49 84° NE 17:46:05 10° SE
Cosmos 1486 Rocket 4.2 17:35:18 10° SSW 17:40:32 76° WNW 17:45:48 10° NNE
Cosmos 968 Rocket 3.8 17:38:43 10° SSW 17:43:48 67° WNW 17:48:54 10° NNE
Cosmos 1606 Rocket 4.0 17:39:47 10° N 17:43:55 40° ENE 17:48:04 10° SE
YAOGAN 1 3.7 17:40:53 10° ESE 17:44:12 22° ENE 17:47:32 10° NNE
H-2A R/B 2.3 17:42:22 10° NNE 17:46:52 80° WNW 17:51:16 10° SSW
H-2A R/B 3.6 17:44:22 10° S 17:48:10 47° W 17:52:09 10° NNW
Cosmos 1626 2.0 17:45:15 10° S 17:48:56 87° E 17:52:40 10° N
CZ-2C R/B 3.4 17:44:42 10° SE 17:49:37 44° ENE 17:54:50 10° N
Cosmos 1939 Rocket 2.9 17:46:02 10° SSE 17:50:07 64° ENE 17:54:12 10° N
Cosmos 1953 4.4 17:47:31 10° NNW 17:51:01 30° W 17:54:29 10° SSW
CSL-04 DEB 4.4 17:51:32 10° NNE 17:55:48 72° ESE 17:59:55 10° S
CZ-4 R/B 2.1 17:52:38 10° SE 17:56:16 31° ENE 17:59:53 10° N
SKYMED 2 3.8 17:52:19 10° NNE 17:56:34 49° E 18:00:46 10° S
ATLAS 5 CENTAUR R/B 1.4 17:53:35 10° SSW 17:57:31 67° SE 18:01:05 15° NE
MOS 1 Rocket 3.6 17:54:06 10° NNE 17:58:09 37° E 18:02:07 10° SSE
BREEZE-M DEB (TANK) 2.9 17:56:35 10° WNW 18:00:25 51° SSW 18:02:38 10° SE
YAOGAN 3 4.5 17:56:48 10° SSE 18:01:08 71° ENE 18:05:29 10° N
CREW DRAGON DEMO-1 DEB 4.1 17:59:32 10° WNW 18:02:02 25° N 18:03:09 20° NNE
Meteor 2-10 Rocket 4.0 17:59:10 10° N 18:04:27 40° ENE 18:09:29 10° SE
Feng Yun 1-1 Rocket 4.1 18:01:26 10° SSE 18:06:49 80° ENE 18:12:20 10° NNW
Abrixas rocket 3.6 18:05:11 10° W 18:07:32 28° SSW 18:09:52 10° SSE
Cosmos 1503 Rocket 4.2 18:02:31 10° SSW 18:07:52 78° WNW 18:13:17 10° NNE
Cosmos 2058 Rocket 3.6 18:04:23 10° N 18:08:35 37° ENE 18:12:45 10° SE
Cosmos 2228 2.9 18:04:39 10° N 18:08:55 82° E 18:13:11 10° S
SJ 16-02 3.1 18:07:07 10° SE 18:08:46 15° ESE 18:08:46 15° ESE
Cosmos 1315 Rocket 2.8 18:06:34 10° NNW 18:10:32 87° W 18:14:31 10° S
H-2A R/B 2.4 18:06:17 10° SE 18:10:51 39° ENE 18:15:33 10° N
Cosmos 2263 Rocket 2.2 18:05:17 10° SSW 18:10:59 86° WNW 18:16:42 10° NNE
Okean 1-7 Rocket 4.3 18:09:31 10° SSE 18:13:33 33° E 18:16:13 18° NE
EXPRESS MD2 4.2 18:05:11 10° WNW 18:14:01 73° NNE 18:16:49 24° E
SAR-Lupe-4 4.2 18:12:53 26° ENE 18:14:10 34° E 18:17:27 10° SSE
Meteor 1-24 Rocket 3.5 18:10:38 10° S 18:16:02 85° E 18:21:22 10° NNE
Cosmos 1300 3.0 18:15:05 10° NNW 18:18:53 66° W 18:22:40 10° S
Cosmos 1689 Rocket 3.1 18:22:29 28° SE 18:22:29 28° SE 18:24:19 10° SSE
GENESIS II 4.2 18:20:32 10° SW 18:24:32 85° NW 18:26:42 26° NE
SAR-Lupe-1 4.3 18:24:36 35° NE 18:25:39 47° E 18:29:06 10° S
Cosmos 1943 3.6 18:22:23 10° NNW 18:28:01 65° WSW 18:33:35 10° SSE
ISS -1.2 18:27:58 10° SSE 18:28:24 11° SSE 18:28:24 11° SSE
Helios 1A Rocket 3.1 18:26:29 10° SE 18:30:28 49° ENE 18:34:30 10° N
Cosmos 1726 Rocket 3.6 18:27:50 10° N 18:32:12 81° W 18:36:34 10° S
USA 267 3.8 18:29:51 26° E 18:32:46 38° SE 18:38:45 10° SSW
SJ-11-01 4.3 18:28:18 10° SSE 18:32:53 55° ENE 18:37:28 10° N
ARGOS 3.3 18:28:26 10° SE 18:33:31 46° ENE 18:38:39 10° N
CSL-04 Debris 4.3 18:29:41 10° SE 18:34:51 49° ENE 18:40:03 10° N
Cosmos 2279 Rocket 4.2 18:30:01 10° NNW 18:36:16 73° W 18:42:28 10° S
Lacrosse 5 2.4 18:31:48 10° NW 18:36:33 39° NNE 18:37:41 34° ENE
Cosmos 773 Rocket 4.2 18:33:23 10° NNW 18:38:33 73° WSW 18:43:39 10° SSE
Okean-O 2.5 18:35:15 10° SSE 18:39:41 81° ENE 18:44:08 10° NNW
ATLAS 2AS CENTAUR R/B 4.0 18:34:08 10° WSW 18:41:35 42° NW 18:48:02 14° NNE
CZ-2C R/B 3.3 18:43:09 33° ESE 18:43:09 33° ESE 18:47:46 10° SSE
COSMO-SKYMED 1 3.3 18:40:25 10° N 18:44:39 52° WNW 18:48:52 10° SSW
Okean O Rocket 4.5 18:45:13 10° SW 18:48:25 19° W 18:51:37 10° NW
ERS-2 2.4 18:46:37 24° N 18:48:41 64° WNW 18:52:16 10° SSW
RESURS DK-1 4.3 18:45:34 10° WSW 18:49:07 27° NW 18:52:07 13° N
CZ-4B R/B 3.3 18:46:17 10° N 18:49:18 29° WNW 18:52:15 10° SW
X-37B 3.4 18:47:43 10° S 18:47:55 11° S 18:47:55 11° S
Cosmos 158 Rocket 4.3 18:46:16 10° N 18:51:21 44° ENE 18:51:25 44° ENE
BREEZE-M DEB (TANK) 3.9 18:50:42 10° WNW 18:51:44 22° NW 18:51:44 22° NW
Cosmos 1538 Rocket 4.0 18:57:19 10° NNW 19:02:30 79° WSW 19:07:39 10° SSE
Cosmos 1844 Rocket 2.6 19:01:09 10° S 19:06:43 61° ESE 19:07:13 58° E
USA 234 3.5 19:06:27 44° ENE 19:07:59 53° NNE 19:14:19 10° NW
Meteor 2-1 Rocket 4.0 19:02:30 10° N 19:08:09 86° E 19:13:40 10° S
CZ-4C R/B 4.0 19:06:07 10° W 19:10:33 25° NNW 19:13:43 17° NNE
Cosmos 1777 Rocket 4.5 19:05:46 10° SW 19:10:57 59° WNW 19:14:04 24° N
Cosmos 489 Rocket 4.4 19:05:51 10° NNW 19:12:15 78° ENE 19:15:42 29° SSE
Cosmos 1092 Rocket 3.8 19:08:55 10° S 19:15:03 67° E 19:17:18 40° NNE
Iridium 4 Rocket 3.8 19:10:49 10° N 19:23:28 - S 19:15:35 55° NE
Meteor 2-8 Rocket 4.4 19:10:48 10° N 19:16:19 58° NE 19:16:19 58° NE
YAOGAN 1 3.8 19:15:59 10° SSW 19:20:03 40° W 19:24:10 10° NNW
COSMOS 2455 2.9 19:15:43 10° SW 19:21:45 76° NW 19:23:37 46° NNE
Cosmos 2344 4.4 19:14:55 10° NW 19:23:41 53° NE 19:26:40 44° E
CSL-04 Rocket 4.0 19:24:34 10° S 19:29:53 64° WSW 19:35:20 10° NNW
CZ-4 R/B 3.6 19:27:51 10° SSW 19:31:18 25° W 19:34:43 10° NW
ATLAS 5 CENTAUR R/B 3.6 19:39:20 10° W 19:42:38 22° NNW 19:42:38 22° NNW
SJ 16-02 3.1 19:43:37 10° SW 19:45:49 28° SW 19:45:49 28° SW
H-2A R/B 3.9 19:46:12 10° SSW 19:50:24 28° W 19:54:43 10° NW
Cosmos 2263 Rocket 4.5 19:51:54 10° W 19:55:46 18° NW 19:58:47 13° N
NOSS 3-1 (C) 4.1 19:50:00 10° NW 19:56:36 63° NNE 19:56:36 63° NNE
USA 229 4.5 20:05:31 10° NW 20:10:36 45° N 20:10:36 45° N
USA 229 DEB 4.5 20:05:31 10° NW 20:10:37 46° N 20:10:37 46° N
USA 267 3.6 20:17:12 61° W 20:17:12 61° W 20:22:36 10° WSW
Lacrosse 5 3.9 20:14:46 10° NW 20:16:55 25° WNW 20:16:55 25° WNW
CZ-2C R/B 4.2 20:24:39 32° WSW 20:24:39 32° WSW 20:28:11 10° SW
